Vorticity
6 7 4 2 0 -1 -1 5 13 10 9 5 6 7 9 13 17 19 15 12 8 6
3 2 2 1 1 5 11 14 5 6 5 7 8 11 12 12 9 6 5 6 6 6
1 2 4 10 10 11 1 5 7 9 10 10 11 11 11 7 7 8 6 5 5 5
3 9 2 4 5 7 8 9 12 10 10 11 9 8 7 7 6 6 6 5 5 7
7 8 5 5 7 9 10 10 9 8 7 7 8 7 8 8 8 8 10 12 9 7
7 9 11 11 8 7 8 9 10 11 12 13 14 14 15 14 14 10 7 8 11 12
10 9 9 9 9 10 10 9 8 9 9 8 8 7 9 10 11 13 13 12 10 9
8 10 9 8 8 10 11 11 12 11 12 14 14 13 13 13 15 13 9 10 11 12
10 7 7 10 11 13 16 14 14 13 13 13 14 13 13 12 11 13 13 13 8 6
9 12 14 14 16 15 14 15 13 12 10 12 11 11 11 9 10 8 6 5 6 3
13 14 13 17 14 15 13 13 11 10 8 9 7 8 10 9 5 6 5 4 4 3
16 16 14 12 10 10 10 9 12 15 15 16 13 8 5 6 4 2 0 1 1 4
12 14 12 11 12 13 16 15 14 9 8 7 4 4 3 2 2 4 9 11 13 16
12 11 13 16 15 13 9 11 10 10 10 9 8 10 11 11 12 11 8 8 9 9
Height
5785 5783 5781 5777 5774 5770 5767 5763 5759 5756 5752 5747 5742 5737 5733 5729 5725 5721 5718 5714 5711 5708
5775 5772 5769 5765 5762 5758 5754 5750 5746 5742 5738 5734 5730 5725 5721 5716 5712 5709 5705 5702 5699 5695
5763 5760 5757 5753 5750 5745 5741 5736 5732 5728 5724 5719 5716 5712 5708 5704 5700 5696 5693 5689 5685 5682
5750 5747 5743 5738 5734 5730 5725 5721 5717 5713 5709 5705 5701 5698 5694 5691 5687 5683 5678 5675 5671 5667
5736 5732 5728 5724 5719 5715 5710 5705 5701 5697 5693 5690 5687 5683 5679 5675 5671 5668 5663 5660 5656 5651
5721 5716 5711 5707 5702 5698 5693 5689 5685 5681 5677 5674 5670 5667 5663 5660 5656 5652 5648 5645 5641 5636
5706 5702 5697 5692 5687 5683 5679 5674 5670 5666 5661 5658 5654 5651 5647 5644 5640 5636 5632 5629 5625 5621
5692 5687 5683 5678 5673 5668 5662 5658 5654 5649 5645 5640 5637 5634 5631 5627 5624 5620 5616 5612 5609 5605
5676 5670 5665 5660 5655 5649 5644 5640 5635 5631 5627 5623 5619 5617 5614 5610 5607 5603 5600 5596 5593 5589
5657 5651 5646 5641 5636 5631 5627 5622 5618 5614 5611 5607 5604 5601 5598 5595 5592 5588 5584 5581 5577 5573
5638 5632 5627 5622 5618 5614 5611 5606 5602 5598 5594 5590 5585 5583 5581 5579 5576 5573 5568 5565 5560 5557
5619 5615 5610 5606 5602 5598 5595 5590 5585 5581 5578 5575 5570 5566 5564 5562 5559 5556 5552 5547 5542 5538
5604 5600 5595 5591 5587 5582 5578 5574 5569 5566 5561 5558 5555 5550 5547 5544 5541 5537 5533 5527 5524 5519
5587 5583 5579 5576 5571 5567 5563 5559 5554 5551 5545 5541 5536 5533 5527 5524 5521 5516 5513 5509 5504 5500